Meteo Giornale » Osservazioni meteo Stati Uniti (USA) » Newark

ore: 17:51 - Osservazioni Meteo Newark
Lat. 40° 40' N Lon. 74° 10' W Alt. 5 metri s.l.m.

molto_nuvoloso

24 °C

Molto Nuvoloso

Temp. 24 Ore

21 °C

27 °C

Sud

11.1 Km/h

Dew point 18 °C

Umidità 69 %

Visibilità  10 Km

Il sole sorge alle ore 06:23

Il sole tramonta alle ore 19:30

Data e Ora Cielo e Fenomeni T °C DP °C Um. % Pres. hPa Vis. km Vento km/h
Oggi h: 17:51 molto_nuvoloso Molto Nuvoloso 24 18 69 1018 10 S 11.1
Oggi h: 16:51 molto_nuvoloso Molto Nuvoloso 24 18 69 1019 10 S 9.3
Oggi h: 15:51 coperto_pioggia Pioggia 24 18 69 1019 10 S/SE 11.1
Oggi h: 14:51 molto_nuvoloso Molto Nuvoloso 24 17 64 1019 10 S 14.8
Oggi h: 13:51 molto_nuvoloso Molto Nuvoloso 26 17 57 1019 10 SE 9.3
Oggi h: 12:51 nuvoloso Nuvoloso 26 17 57 1020 10 N 0
Oggi h: 11:51 molto_nuvoloso Molto Nuvoloso 25 17 61 1020 10 SE 7.4
Oggi h: 10:51 molto_nuvoloso Molto Nuvoloso 24 18 69 1020 10 N 7.4
Oggi h: 09:51 molto_nuvoloso Molto Nuvoloso 23 18 73 1020 10 N/NE 16.7
Oggi h: 08:51 molto_nuvoloso Molto Nuvoloso 22 18 78 1020 10 N 13
Oggi h: 07:51 molto_nuvoloso Molto Nuvoloso 22 18 78 1020 10 N/NE 14.8
Oggi h: 06:51 molto_nuvoloso Molto Nuvoloso 22 18 78 1019 10 N 16.7
Oggi h: 05:51 coperto Coperto 21 17 77 1019 10 N/NE 13
Oggi h: 04:51 coperto Coperto 22 17 73 1018 10 N 13
Oggi h: 03:51 coperto Coperto 23 17 68 1018 10 N/NO 13
Oggi h: 02:51 coperto Coperto 23 18 73 1018 10 NO 9.3
Oggi h: 01:51 coperto Coperto 23 18 73 1019 10 NO 9.3
Oggi h: 00:51 coperto Coperto 24 20 78 1019 10 O 9.3
Ieri h: 23:51 coperto Coperto 24 20 78 1018 10 NO 14.8
Ieri h: 22:51 coperto_pioggia Pioggia 24 21 83 1018 10 O/NO 11.1
Ieri h: 21:51 coperto_pioggia Pioggia 26 22 78 1019 11 N 5.5
Ieri h: 20:51 coperto_pioggia Pioggia 27 22 74 1018 10 O/SO 7.4
Ieri h: 19:51 coperto Coperto 27 21 69 1018 10 O/SO 9.3
Ieri h: 18:51 molto_nuvoloso Molto Nuvoloso 27 21 69 1017 10 SO 13